THURAYA-3

Last updated on Sun Jun 21 2026 00:03:04 GMT+0000 (Coordinated Universal Time)

1 32404U 08001A 26171.12134348 -.00000030 00000+0 00000+0 0 9997 2 32404 5.9949 35.8105 0001598 152.5813 196.8472 1.00007771 67510
UTC large
Height (km)
Speed (km/s)
/
Latitude / Longitude
Inclination (degrees)
Orbital Period (minutes)
Azimuth
Elevation
Range (km)
Doppler Factor

Next 0 passes for location: London (51.5072 / 0.1276)

No passes found over London.
THURAYA-3